Vacaville, CA

9:47 PM PST on December 10, 2019 (GMT -0800)
Nut Tree

Weather History for KVCB - November, 2019

Change the Weather History Date:

Tuesday, November 19, 2019

  Actual Average Record
Temperature  
Mean Temperature 60 °F -  
Max Temperature 71 °F 62 °F 75 °F (1989)
Min Temperature 50 °F 41 °F 27 °F (1977)
Degree Days  
Heating Degree Days 4    
Growing Degree Days 10 (Base 50)    
Moisture  
Dew Point 46 °F    
Average Humidity 66    
Maximum Humidity 86    
Minimum Humidity 34    
Precipitation  
Precipitation 0.00 in - - ()
Sea Level Pressure  
Sea Level Pressure 29.68 in    
Wind  
Wind Speed 4 mph ()    
Max Wind Speed 18 mph    
Max Gust Speed 29 mph    
Visibility 9.7 miles    
Events      
Averages and records for this station are not official NWS values.
T = Trace of Precipitation, MM = Missing Value Source: Averaged Metar Reports

Daily Weather History Graph

Daily Weather History Graph

Search for Another Location

Airport or City:

Astronomy

Nov. 19, 2019 Rise Set
Actual Time 6:53 AM PST 4:52 PM PST
Civil Twilight 6:25 AM PST 5:21 PM PST
Nautical Twilight 5:52 AM PST 5:53 PM PST
Astronomical Twilight 5:21 AM PST 6:24 PM PST
Moon 11:53 PM PST (11/19) 1:07 PM PST (11/19)
Length of Visible Light 10h 55m
Length of Day
9h 58m
Waning Gibbous, 50% of the Moon is Illuminated
Nov 19
Waning Gibbous
Nov 19
Last Quarter
Nov 26
New
Dec 3
First Quarter
Dec 11
Full

Hourly Weather History & Observations

Time (PST) Temp. Dew Point Humidity Pressure Visibility Wind Dir Wind Speed Gust Speed Precip Events Conditions
12:53 AM 51.1 °F 46.0 °F 83% 29.78 in 8.0 mi Calm Calm - N/A   Clear
1:53 AM 51.1 °F 46.0 °F 83% 29.77 in 8.0 mi South 3.5 mph - N/A   Clear
2:53 AM 50.0 °F 45.0 °F 83% 29.76 in 9.0 mi Calm Calm - N/A   Clear
3:53 AM 50.0 °F 46.0 °F 86% 29.75 in 10.0 mi Calm Calm - N/A   Clear
4:53 AM 51.1 °F 46.9 °F 86% 29.74 in 10.0 mi ESE 5.8 mph - N/A   Clear
5:53 AM 50.0 °F 46.0 °F 86% 29.73 in 10.0 mi Variable 3.5 mph - N/A   Clear
6:53 AM 53.1 °F 48.9 °F 86% 29.73 in 10.0 mi SW 3.5 mph - N/A   Clear
7:53 AM 55.9 °F 50.0 °F 80% 29.75 in 10.0 mi ESE 3.5 mph - N/A   Clear
8:53 AM 60.1 °F 50.0 °F 69% 29.77 in 10.0 mi ENE 4.6 mph - N/A   Clear
9:53 AM 64.9 °F 50.0 °F 58% 29.77 in 9.0 mi NNE 5.8 mph - N/A   Clear
10:53 AM 68.0 °F 48.0 °F 49% 29.75 in 10.0 mi Variable 4.6 mph - N/A   Clear
12:53 PM 71.1 °F 41.0 °F 34% 29.70 in 10.0 mi ENE 6.9 mph - N/A   Clear
1:53 PM 71.1 °F 43.0 °F 36% 29.68 in 10.0 mi NE 4.6 mph - N/A   Scattered Clouds
2:53 PM 71.1 °F 43.0 °F 36% 29.66 in 10.0 mi ESE 4.6 mph - N/A   Clear
3:53 PM 66.9 °F 46.9 °F 49% 29.64 in 10.0 mi SW 10.4 mph - N/A   Clear
4:53 PM 64.0 °F 48.0 °F 56% 29.61 in 10.0 mi SW 11.5 mph - N/A   Clear
5:53 PM 57.0 °F 46.9 °F 69% 29.60 in 10.0 mi Calm Calm - N/A   Clear
6:53 PM 53.1 °F 45.0 °F 74% 29.58 in 10.0 mi South 4.6 mph - N/A   Clear
7:53 PM 54.0 °F 46.0 °F 75% 29.57 in 10.0 mi Variable 5.8 mph - N/A   Clear
8:53 PM 55.0 °F 46.0 °F 72% 29.57 in 10.0 mi Calm Calm - N/A   Overcast
9:53 PM 54.0 °F 45.0 °F 72% 29.57 in 10.0 mi North 3.5 mph - N/A   Mostly Cloudy
10:53 PM 61.0 °F 39.0 °F 44% 29.56 in 10.0 mi North 15.0 mph - N/A   Scattered Clouds
11:53 PM 59.0 °F 39.9 °F 49% 29.57 in 10.0 mi North 18.4 mph 28.8 mph N/A   Clear